{"data":{"norad_id":51772,"epoch":"2026-05-24T23:27:15.409152Z","epoch_age_seconds":80239,"freshness":"FRESH","line1":"1 51772U 22017E   26144.97726168 -.00000661  00000+0 -23430-4 0  9997","line2":"2 51772  53.2154 356.6501 0001448  86.8104 273.3054 15.08831712234115","mean_motion":15.08831712,"eccentricity":0.0001448,"inclination_deg":53.2154,"raan_deg":356.6501,"arg_perigee_deg":86.8104,"mean_anomaly_deg":273.3054,"bstar":-2.343e-5,"rev_number":23411,"period_min":95.438078915457,"perigee_km":538.76700943183,"apogee_km":540.77043492897,"semimajor_km":6917.9057221804,"source":"CELESTRAK","updated_at":"2026-05-25T13:38:16.950297Z"}}